www.pogodaiklimat.ru

Погода и климат >> Архив погоды >> Россия >> Якутия >> Сухана


ПОГОДА в Сухане

  • Прогноз погоды в Сухане
  • Монитор погоды в Сухане
  • Климат города

АРХИВ ПОГОДЫ в Сухане

Время (UTC), дата Ветер
(напр.,м/с)
 
Видим.   Явления Облачность Т
(С)
Тd
(С)
f
(%)
Тe
(С)
Тes
(С)
Комфортность P
(гПа)
Po
(гПа)
Тmin
(С)
Tmax
(С)
R
(мм)
R24
(мм)
S
(см)
06 17.05 С 2 50 км 6/4 600 м
[Cu hum As trans]
+0.6 -10.6 43 -2 +2 1000.6 991.0
09 17.05 СВ 2 50 км 3/3 600 м
[Cu hum]
+0.9 -7.6 53 -2 +1 1001.9 992.3
12 17.05 С 1 50 км 6/6 1000 м
[Sc]
-2.4 -11.6 49 -4 -4 1004.6 995.0 +1.1
15 17.05 С 1 50 км 6/6 1000 м
[Sc diur, vesp]
-6.9 -13.7 58 -9 -9 1006.7 996.7
18 17.05 С 1 50 км 3/3 1000 м
[Sc]
-9.8 -15.7 62 -12 -12 1009.0 999.0
21 17.05 С 1 50 км 10/3 1000 м
[Sc As op]
-10.3 -15.6 65 -12 -12 1009.4 999.4
00 18.05 С 2 20 км слабый снег 10/0
[As op]
-9.5 -14.6 66 -14 -13 1008.9 998.9 -11.3 31
03 18.05 С 2 20 км слабый снег 10/0
[As op]
-9.5 -14.6 66 -14 -12 1008.9 998.9 -11.3 31
06 18.05 С 2 50 км {снег} 10/6 1000 м
[Sc As op]
-8.2 -14.5 60 -12 -12 1009.1 999.1
09 18.05 С 2 50 км 9/9 1000 м
[Sc]
-3.3 -11.6 53 -7 -6 1010.8 1001.0
12 18.05 СВ 2 50 км 9/9 1000 м
[Sc]
-3.1 -11.3 53 -7 -6 1012.8 1002.9 -3.1 0.0
15 18.05 С 1 50 км 8/4 1000 м
[Sc Ac trans Ci fib]
-3.9 -9.7 64 -6 -6 1012.8 1002.9
18 18.05 С 1 50 км 6/3 1000 м
[Sc Ac trans Ci fib]
-9.4 -14.5 66 -12 -12 1013.6 1003.7
21 18.05 штиль 0 50 км 6/0
[Ac lent Ci sp]
-7.8 -13.9 62 -8 -7 1015.0 1004.9
00 19.05 С 5 50 км 9/9 600 м
[Cb cap]
-6.8 -12.5 64 -14 -14 1015.6 1005.7 -11.0 29
03 19.05 С 4 50 км 9/9 600 м
[Cb cap]
-5.2 -12.1 58 -11 -11 1016.0 1006.1
06 19.05 С 4 50 км 9/9 600 м
[Cu Sc]
-2.7 -9.7 59 -8 -8 1016.0 1006.3
09 19.05 С 4 50 км 10/10 600 м
[Sc]
-1.9 -9.8 55 -7 -7 1017.0 1007.3
12 19.05 С 4 50 км 10/10 1000 м
[Sc]
-2.5 -9.9 57 -8 -8 1018.2 1008.5 -1.7
15 19.05 С 3 50 км 10/10 1000 м
[Sc]
-3.4 -10.3 59 -8 -8 1018.6 1008.7
18 19.05 С 3 50 км 10/10 1000 м
[Sc]
-3.9 -10.1 62 -9 -9 1018.9 1009.0
21 19.05 С 3 50 км 10/10 1000 м
[Sc]
-5.3 -11.3 63 -10 -10 1018.8 1008.9
00 20.05 С 1 50 км 8/8 1000 м
[Sc]
-5.3 -11.7 61 -7 -6 1018.9 1009.0 -5.4 29
03 20.05 С 1 50 км 3/3 1000 м
[Sc]
-1.8 -8.8 59 -3 +5 1017.9 1008.2
06 20.05 С 1 50 км 4/0
[Ci fib]
+0.4 -8.8 50 -1 +9 1017.2 1007.5
09 20.05 С 2 50 км 3/0
[Ci fib]
+0.9 -8.1 51 -2 +2 1017.1 1007.4
12 20.05 СВ 2 50 км ясно +1.1 -8.2 50 -2 -1 1016.7 1007.0 +1.2
15 20.05 штиль 0 50 км 3/0
[Ci fib]
-2.2 -10.3 54 -3 -3 1017.6 1007.9
18 20.05 штиль 0 50 км 3/0
[Ci fib]
-9.2 -13.2 73 -10 -10 1018.0 1007.9
21 20.05 штиль 0 50 км ясно -9.3 -13.8 70 -10 -8 1018.0 1007.9
00 21.05 СВ 1 50 км 3/0
[Ci fib]
-1.8 -9.2 57 -3 +3 1016.7 1007.0 -10.2 28
03 21.05 С 2 50 км 4/0
[Ci fib]
+0.4 -10.4 44 -2 +7 1016.2 1006.5
06 21.05 В 2 50 км 6/0
[Ci fib]
+2.7 -12.4 32 -0 +8 1015.0 1005.3
09 21.05 СВ 2 50 км 4/0
[Ci fib]
+3.7 -12.9 29 +2 +6 1014.3 1004.7
12 21.05 В 2 50 км ясно +3.2 -9.6 38 +1 +2 1013.8 1004.2 +3.8
15 21.05 СВ 2 50 км ясно -4.6 -10.4 64 -8 -8 1013.6 1003.9
18 21.05 СВ 2 50 км 4/0
[Ac trans]
-4.3 -11.7 56 -8 -8 1014.4 1004.7
21 21.05 штиль 0 50 км 9/0
[Ac As]
-4.9 -11.3 61 -5 -5 1015.0 1005.1
00 22.05 СВ 2 20 км слабый снег 10/0
[As op]
-0.3 -7.2 60 -3 -2 1014.8 1004.9 -5.2 25
03 22.05 С 3 50 км {снег} 9/9 600 м
[Cb cap]
-1.1 -7.7 61 -6 -5 1013.9 1004.2
06 22.05 СВ 3 50 км {снег} 10/10 600 м
[Sc]
+0.2 -6.9 59 -4 -4 1013.5 1003.8
09 22.05 С 2 50 км 10/10 600 м
[Sc]
+0.5 -7.3 56 -2 -2 1013.9 1004.2
12 22.05 В 1 50 км 10/10 600 м
[Sc]
0.0 -5.9 64 -2 -2 1014.3 1004.6 +0.7 0.0
15 22.05 С 1 50 км 8/8 1000 м
[Sc]
-0.8 -6.8 64 -2 -2 1013.6 1003.9
18 22.05 З 1 50 км ясно -7.1 -9.7 82 -9 -9 1014.4 1004.5
21 22.05 штиль 0 50 км ясно -7.0 -9.9 80 -8 -6 1014.6 1004.7
00 23.05 штиль 0 50 км ясно -0.5 -7.4 60 -1 +6 1013.5 1003.8 -8.1 24
03 23.05 ЮЗ 2 50 км 4/4 600 м
[Cu hum]
+4.1 -10.1 35 +2 +8 1011.7 1002.1
06 23.05 ЮЗ 2 50 км ясно +6.1 -10.5 29 +5 +14 опасность
простуды
1009.8 1000.2
09 23.05 Ю 1 50 км ясно +6.9 -10.5 28 +7 +12 1007.7 998.2
12 23.05 Ю 2 50 км ясно +6.6 -12.4 24 +5 +6 1006.8 997.1 +7.1
15 23.05 Ю 2 50 км ясно +5.1 -9.7 33 +3 +3 1005.3 995.8
18 23.05 Ю 3 50 км 6/0
[As trans]
+3.2 -8.0 44 0 0 1002.0 992.5
21 23.05 Ю 4 50 км 9/0
[As trans]
+2.9 -6.8 49 -1 -1 998.1 988.7
00 24.05 Ю 3 50 км 10/0
[As op]
+4.2 -6.5 46 +1 +2 995.2 985.8 +2.8 23
03 24.05 В 4
{12}
50 км 10/0
[As op]
+4.8 -4.3 52 +1 +3 992.7 984.3

 

Местоположение метеостанции Сухана (Якутия, Россия): широта 68.62 долгота 118.30 высота над уровнем моря 77 м.

В архиве по умолчанию представлена погода в Сухане за последнюю неделю. Архивные данные за месяц целиком и за предыдущие месяцы, начиная с января 2011 года, Вы можете получить, выбрав интересующий диапазон дат из раскрывающегося списка и нажав кнопку "Ввод!".

Внимание! Время в таблицах - всемирное. Для получения местного времени необходимо прибавить поправку, которая в Сухане равна 9 ч.

Смотрите также архив погоды в соседних городах и на ближайших метеорологических станциях:

Погода в Джарджане (Якутия, Россия) (231 км)
Погода в Оленеке (Якутия, Россия) (240 км)
Погода в Джалинде (Якутия, Россия) (241 км)
Погода в Эйке (Якутия, Россия) (291 км)
Погода в Жиганске (Якутия, Россия) (294 км)
Погода в Шелагонцах (Якутия, Россия) (316 км)
Погода в Полярном (Якутия, Россия) (326 км)
Погода в Саскылахе (Якутия, Россия) (406 км)
Погода в Тюмяти (Якутия, Россия) (415 км)
Погода в Кюсюре (Якутия, Россия) (419 км)

Пояснения к столбцам:

Ветер - указаны скорость ветра в м/с - средняя за 10 мин, порывы в срок и между сроками (в фигурных скобках) и направление, откуда дует ветер: С - северный, СВ - северо-восточный, В - восточный, ЮВ - юго-восточный, Ю - южный, ЮЗ - юго-западный, З - западный, СЗ - северо-западный.
Видимость - горизонтальная дальность видимости в метрах или километрах. При видимости от 1 до 10 км при отсутствии осадков обычно наблюдается дымка, при ухудшении видимости до 1 км и менее - туман. В сухую погоду видимость может ухудшаться дымом, пылью или мглою.
Явления - указаны атмосферные явления, наблюдавшиеся в срок или в последний час перед сроком; фигурными скобками обозначены явления, наблюдавшиеся между сроками (за 1-3 часа до срока); квадратными скобками обозначены град или гололедные отложения с указанием их диаметра в мм.
Облачность - указаны через наклонную черту общая и нижняя облачность в баллах и высота нижней границы облаков в метрах; квадратными скобками обозначены формы облаков: Ci - перистые, Cs - перисто-слоистые, Cc - перисто-кучевые, Ac - высококучевые, As - высокослоистые, Sc - слоисто-кучевые, Ns - слоисто-дождевые, Cu - кучевые, Cb - кучево-дождевые. Подробнее классификацию облаков см. в Атласе облаков (PDF).
T - Температура воздуха - температура, измеренная на высоте 2 м над землей.
Td - Температура точки росы - температура, при понижении до которой содержащийся в воздухе водяной пар достигнет насыщения.
f - Относительная влажность воздуха - влажноcть воздуха, измеренная на высоте 2 м над землей.
Te - Эффективная температура - температура, которую ощущает одетый по сезону человек в тени. Характеристика душности погоды. При расчете учитывается влияние влажности воздуха и скорости ветра на теплоощущения человека.
Tes - Эффективная температура на солнце - температура, которую ощущает человек, с поправкой на солнечный нагрев. Характеристика знойности погоды. Зависит от высоты солнца над горизонтом, облачности и скорости ветра. Ночью, в пасмурную погоду, а также при ветре 12 м/с и более поправка равна нулю.
P - Атмосферное давление - приведенное к уровню моря атмосферное давление.
Po - Атмосферное давление - измеренное на уровне метеостанции атмосферное давление.
Tmin - Минимальная температура - минимум температуры воздуха на высоте 2 м над землей.
Tmax - Максимальная температура - максимум температуры воздуха на высоте 2 м над землей.
R - Количество осадков - Количество выпавших осадков за период времени, мм. При наведении курсора мыши на число - период времени, за который выпало указанное количество осадков.
R24 - Количество осадков - Количество выпавших осадков за 24 часа, мм.
S - Снежный покров - Высота снежного покрова, см. При наведении курсора мыши на число - состояние снежного покрова и степень покрытия местности в баллах.